This demonstration page uses our WeatherBlox Daily Observations layout. Learn more.

Left ArrowRight Arrow

Hourly Observations for April 2, 2022

Temp ( °F °C ) Dew Point ( °F °C ) Humidity (%) Winds ( mph kmh ) Pressure ( in mb ) Visibility ( mi km ) Precip ( " mm )
12:56 am 00:56 Partly Cloudy 45 7.2 40 4.7 84 84 ESE 5 7 29.92 1013 10 16 0.00 0.00
1:56 am 01:56 Mostly Clear 44 6.9 40 4.4 84 84 SE 5 7 29.92 1013 10 16 0.00 0.00
2:56 am 02:56 Mostly Clear 43 6.3 40 4.5 88 88 Calm 29.91 1013 10 16 0.00 0.00
5:56 am 05:56 undefined 38 3.6 37 2.6 93 93 NW 10 17 30.02 1017 10 16 0.00 0.00
6:56 am 06:56 Mostly Cloudy 40 4.7 38 3.5 92 92 NNW 14 22 30.03 1017 10 16 0.00 0.00
7:56 am 07:56 Partly Cloudy 41 5.2 38 3.4 88 88 WNW 9 15 30.07 1018 10 16 0.00 0.00
8:56 am 08:56 Sunny 42 5.3 34 1.2 75 75 WNW 12 19 30.09 1019 10 16 0.00 0.00
9:56 am 09:56 Sunny 45 7.3 35 1.8 68 68 NW 9 15 30.11 1020 10 16 0.00 0.00
10:56 am 10:56 Mostly Sunny 50 9.8 36 2.4 60 60 WNW 12 19 30.12 1020 10 16 0.00 0.00
11:56 am 11:56 Mostly Sunny 53 11.5 36 2 52 52 WNW 12 19 30.12 1020 10 16 0.00 0.00
12:56 pm 12:56 Mostly Sunny 56 13.5 32 0.2 40 40 NNW 13 20 30.12 1020 10 16 0.00 0.00
1:56 pm 13:56 Mostly Sunny 57 14.1 31 -0.4 37 37 NW 13 20 30.11 1020 10 16 0.00 0.00
2:56 pm 14:56 Mostly Sunny 59 15.2 28 -2.3 30 30 WNW 13 20 30.08 1019 10 16 0.00 0.00
3:56 pm 15:56 Mostly Sunny 60 15.7 27 -2.8 28 28 NW 10 17 30.07 1018 10 16 0.00 0.00
4:56 pm 16:56 Partly Cloudy 61 15.9 24 -4.7 24 24 Calm 30.06 1018 10 16 0.00 0.00
5:56 pm 17:56 Mostly Sunny 60 15.5 24 -4.5 25 25 W 10 17 30.06 1018 10 16 0.00 0.00
6:56 pm 18:56 Sunny 58 14.5 24 -4.3 27 27 NNW 9 15 30.06 1018 10 16 0.00 0.00
7:56 pm 19:56 Clear 55 12.7 25 -4 31 31 NW 3 6 30.06 1018 10 16 0.00 0.00
8:56 pm 20:56 Clear 49 9.5 28 -2.2 44 44 E 5 7 30.06 1018 10 16 0.00 0.00
9:56 pm 21:56 Clear 46 7.8 27 -2.8 47 47 Calm 30.08 1019 10 16 0.00 0.00
10:56 pm 22:56 Mostly Clear 44 6.9 27 -2.8 50 50 Calm 30.08 1019 10 16 0.00 0.00
11:56 pm 23:56 Mostly Clear 44 6.8 25 -3.7 47 47 Calm 30.07 1018 10 16 0.00 0.00

Powered by AerisWeather